Location: Caltech
(34.1382°N, 118.1253°W)
Time: 20:10:18
(UTC-07:00)

Cosmos 1125 Rocket - Visible Passes

Search period start: 25 August 2016 00:00
Search period end: 04 September 2016 00:00
Orbit: 759 x 780 km, 74.0° (Epoch: 25 August)

Date Brightness Start Highest point End Pass type
(mag) Time Alt. Az. Time Alt. Az. Time Alt. Az.
25 Aug 5.4 22:41:40 10° NNW 22:43:49 25° N 22:43:49 25° N visible
26 Aug 5.1 22:05:15 10° N 22:07:50 26° NNE 22:07:50 26° NNE visible
27 Aug 5.2 21:29:11 10° NNE 21:31:54 20° NE 21:31:54 20° NE visible
27 Aug 5.9 23:10:41 10° NW 23:12:11 18° NW 23:12:11 18° NW visible
28 Aug 5.5 20:53:52 10° NNE 20:55:59 13° NE 20:55:59 13° NE visible
28 Aug 5.2 22:33:40 10° NNW 22:36:16 30° NNW 22:36:16 30° NNW visible
29 Aug 4.4 21:56:57 10° NNW 22:00:25 41° N 22:00:25 41° N visible
30 Aug 4.3 21:20:32 10° N 21:24:35 37° NE 21:24:35 37° NE visible
30 Aug 6.1 23:03:28 10° NW 23:04:53 15° WNW 23:04:53 15° WNW visible
31 Aug 4.8 20:44:28 10° NNE 20:48:34 23° ENE 20:48:48 23° ENE visible
31 Aug 5.2 22:25:58 10° NW 22:29:06 29° WNW 22:29:06 29° WNW visible
01 Sep 5.3 20:09:08 10° NNE 20:11:36 13° ENE 20:13:03 12° ENE visible
01 Sep 4.0 21:48:57 10° NNW 21:53:22 57° WNW 21:53:22 57° WNW visible
02 Sep 3.3 21:12:14 10° NNW 21:17:27 71° ENE 21:17:42 70° E visible
03 Sep 4.0 20:35:49 10° N 20:40:42 39° ENE 20:42:06 33° ESE visible
03 Sep 5.6 22:18:45 10° NW 22:22:25 20° W 22:22:25 20° W visible
